Cook, MN

11:40 AM CDT on August 20, 2017 (GMT -0500)
Cook Municipal

Weather History for KCQM - May, 2013

Change the Weather History Date:

Monday, May 20, 2013

  Actual Average Record
Temperature  
Mean Temperature 52 °F -  
Max Temperature 55 °F 60 °F 75 °F (2011)
Min Temperature 48 °F 37 °F 23 °F (2002)
Degree Days  
Heating Degree Days 14    
Growing Degree Days 2 (Base 50)    
Moisture  
Dew Point 50 °F    
Average Humidity 96    
Maximum Humidity 100    
Minimum Humidity 88    
Precipitation  
Precipitation 0.02 in - - ()
Sea Level Pressure  
Sea Level Pressure 29.69 in    
Wind  
Wind Speed 10 mph (ENE)    
Max Wind Speed 14 mph    
Max Gust Speed 26 mph    
Visibility 8 miles    
Events Rain    
Averages and records for this station are not official NWS values.
T = Trace of Precipitation, MM = Missing Value Source: NWS Daily Summary

Daily Weather History Graph

Daily Weather History Graph

Search for Another Location

Airport or City:

Trip Planner

Search our weather history database for the weather conditions in past years. The results will help you decide how hot, cold, wet, or windy it might be!

Date:

Astronomy

May. 20, 2013 Rise Set
Actual Time 5:26 AM CDT 8:48 PM CDT
Civil Twilight 4:48 AM CDT 9:26 PM CDT
Nautical Twilight 3:58 AM CDT 10:16 PM CDT
Astronomical Twilight 2:54 AM CDT 11:22 PM CDT
Moon 3:37 PM CDT 2:44 AM CDT
Length of Visible Light 16h 38m
Length of Day
15h 22m
Waxing Gibbous, 75% of the Moon is Illuminated
May 20
Waxing Gibbous
May 24
Full
May 31
Last Quarter
Jun 8
New
Jun 16
First Quarter

Hourly Weather History & Observations

Time (CDT) Temp. Dew Point Humidity Pressure Visibility Wind Dir Wind Speed Gust Speed Precip Events Conditions
12:17 AM 53.6 °F 51.8 °F 94% 29.75 in 10.0 mi East 10.4 mph 19.6 mph N/A   Overcast
12:36 AM 53.6 °F 51.8 °F 94% 29.74 in 10.0 mi ENE 12.7 mph 19.6 mph N/A   Overcast
12:56 AM 53.6 °F 51.8 °F 94% 29.74 in 10.0 mi ENE 12.7 mph 19.6 mph N/A   Overcast
1:16 AM 53.6 °F 51.8 °F 94% 29.74 in 10.0 mi East 10.4 mph 18.4 mph N/A   Overcast
1:36 AM 53.6 °F 51.8 °F 94% 29.74 in 10.0 mi East 6.9 mph 19.6 mph N/A   Overcast
1:57 AM 53.6 °F 51.8 °F 94% 29.74 in 10.0 mi East 9.2 mph - N/A   Overcast
2:16 AM 55.4 °F 51.8 °F 88% 29.74 in 10.0 mi East 12.7 mph 19.6 mph N/A Rain Light Rain
2:36 AM 53.6 °F 51.8 °F 94% 29.72 in 10.0 mi East 10.4 mph 18.4 mph N/A Rain Light Rain
3:16 AM 53.6 °F 51.8 °F 94% 29.70 in 10.0 mi East 12.7 mph 23.0 mph N/A   Overcast
3:36 AM 53.6 °F 51.8 °F 94% 29.69 in 10.0 mi ENE 10.4 mph 17.3 mph N/A   Overcast
3:57 AM 53.6 °F 51.8 °F 94% 29.69 in 10.0 mi ENE 10.4 mph 19.6 mph N/A   Overcast
4:16 AM 53.6 °F 51.8 °F 94% 29.68 in 10.0 mi ENE 8.1 mph 16.1 mph N/A   Overcast
4:36 AM 53.6 °F 51.8 °F 94% 29.68 in 10.0 mi ENE 9.2 mph 20.7 mph N/A Rain Light Rain
4:57 AM 53.6 °F 51.8 °F 94% 29.67 in 10.0 mi ENE 10.4 mph 16.1 mph N/A Rain Rain
5:16 AM 51.8 °F 51.8 °F 100% 29.67 in 10.0 mi ENE 8.1 mph 17.3 mph N/A Rain Light Rain
5:36 AM 51.8 °F 51.8 °F 100% 29.66 in 10.0 mi ENE 8.1 mph 16.1 mph N/A Rain Light Rain
5:57 AM 51.8 °F 51.8 °F 100% 29.65 in 10.0 mi ENE 6.9 mph 17.3 mph N/A Rain Light Rain
6:16 AM 51.8 °F 51.8 °F 100% 29.64 in 10.0 mi ENE 11.5 mph 19.6 mph N/A Rain Light Rain
6:36 AM 51.8 °F 51.8 °F 100% 29.64 in 10.0 mi ENE 10.4 mph 18.4 mph 0.01 in   Overcast
6:57 AM 51.8 °F 51.8 °F 100% 29.63 in 5.0 mi ENE 8.1 mph 16.1 mph N/A Rain Rain
7:16 AM 51.8 °F 51.8 °F 100% 29.63 in 5.0 mi ENE 10.4 mph 19.6 mph N/A   Drizzle
7:37 AM 51.8 °F 51.8 °F 100% 29.63 in 7.0 mi ENE 8.1 mph - N/A   Drizzle
7:56 AM 51.8 °F 50.0 °F 94% 29.64 in 4.0 mi ENE 13.8 mph 24.2 mph N/A Rain Light Rain
8:16 AM 51.8 °F 50.0 °F 94% 29.65 in 5.0 mi East 12.7 mph 20.7 mph N/A Rain Light Rain
8:37 AM 51.8 °F 50.0 °F 94% 29.65 in 4.0 mi ENE 10.4 mph 19.6 mph 0.01 in   Drizzle
9:16 AM 51.8 °F 50.0 °F 94% 29.64 in 3.0 mi East 10.4 mph 21.9 mph N/A Rain Rain
9:37 AM 51.8 °F 50.0 °F 94% 29.64 in 4.0 mi ENE 11.5 mph 26.5 mph N/A Rain Rain
9:56 AM 51.8 °F 51.8 °F 100% 29.64 in 3.0 mi ENE 6.9 mph - N/A Rain Rain
10:37 AM 51.8 °F 51.8 °F 100% 29.64 in 10.0 mi East 9.2 mph 17.3 mph N/A   Light Drizzle
10:56 AM 51.8 °F 51.8 °F 100% 29.64 in 7.0 mi East 10.4 mph 16.1 mph N/A   Overcast
11:17 AM 51.8 °F 51.8 °F 100% 29.64 in 3.0 mi East 8.1 mph 18.4 mph N/A   Overcast
11:37 AM 51.8 °F 51.8 °F 100% 29.65 in 2.0 mi East 6.9 mph - N/A Rain Rain
11:56 AM 51.8 °F 51.8 °F 100% 29.65 in 7.0 mi East 9.2 mph 16.1 mph N/A Rain Light Rain
12:17 PM 51.8 °F 51.8 °F 100% 29.65 in 5.0 mi East 6.9 mph 23.0 mph N/A Rain Rain
12:37 PM 51.8 °F 51.8 °F 100% 29.66 in 10.0 mi East 8.1 mph 17.3 mph N/A   Overcast
12:56 PM 51.8 °F 51.8 °F 100% 29.66 in 2.0 mi East 10.4 mph 16.1 mph N/A Rain Light Rain
1:16 PM 51.8 °F 51.8 °F 100% 29.66 in 2.5 mi East 9.2 mph 19.6 mph N/A Rain Light Rain
1:56 PM 51.8 °F 51.8 °F 100% 29.66 in 4.0 mi East 9.2 mph 18.4 mph N/A Rain Rain
2:16 PM 51.8 °F 51.8 °F 100% 29.66 in 10.0 mi East 8.1 mph - N/A Rain Light Rain
2:37 PM 51.8 °F 51.8 °F 100% 29.66 in 4.0 mi East 8.1 mph - N/A   Drizzle
2:56 PM 51.8 °F 51.8 °F 100% 29.67 in 10.0 mi ENE 10.4 mph - N/A   Overcast
3:16 PM 51.8 °F 51.8 °F 100% 29.67 in 10.0 mi ENE 9.2 mph - N/A   Overcast
3:37 PM 51.8 °F 51.8 °F 100% 29.68 in 10.0 mi ENE 10.4 mph 17.3 mph N/A   Overcast
3:56 PM 51.8 °F 50.0 °F 94% 29.68 in 10.0 mi ENE 9.2 mph 17.3 mph N/A   Overcast
4:16 PM 51.8 °F 50.0 °F 94% 29.69 in 10.0 mi ENE 8.1 mph 16.1 mph N/A   Overcast
4:37 PM 51.8 °F 50.0 °F 94% 29.68 in 10.0 mi ENE 10.4 mph 18.4 mph N/A   Overcast
4:56 PM 51.8 °F 50.0 °F 94% 29.67 in 10.0 mi ENE 11.5 mph 19.6 mph N/A   Overcast
5:17 PM 51.8 °F 48.2 °F 88% 29.68 in 10.0 mi ENE 12.7 mph 24.2 mph N/A   Overcast
5:36 PM 51.8 °F 48.2 °F 88% 29.69 in 7.0 mi East 12.7 mph 23.0 mph N/A   Overcast
5:56 PM 51.8 °F 48.2 °F 88% 29.69 in 10.0 mi ENE 11.5 mph 20.7 mph N/A Rain Light Rain
6:17 PM 50.0 °F 48.2 °F 94% 29.69 in 7.0 mi ENE 10.4 mph 17.3 mph N/A   Drizzle
6:36 PM 50.0 °F 48.2 °F 94% 29.69 in 10.0 mi ENE 12.7 mph 19.6 mph N/A   Overcast
6:56 PM 50.0 °F 48.2 °F 94% 29.70 in 7.0 mi ENE 9.2 mph 16.1 mph N/A Rain Light Rain
7:17 PM 48.2 °F 48.2 °F 100% 29.71 in 5.0 mi East 6.9 mph - N/A Rain Light Rain
7:36 PM 48.2 °F 46.4 °F 93% 29.71 in 10.0 mi ENE 10.4 mph 20.7 mph N/A   Light Drizzle
7:57 PM 48.2 °F 46.4 °F 93% 29.71 in 10.0 mi ENE 8.1 mph - N/A   Overcast
8:16 PM 48.2 °F 46.4 °F 93% 29.73 in 10.0 mi ENE 4.6 mph - N/A Rain Light Rain
8:36 PM 48.2 °F 46.4 °F 93% 29.73 in 10.0 mi ENE 6.9 mph 18.4 mph N/A   Light Drizzle
9:16 PM 48.2 °F 46.4 °F 93% 29.74 in 10.0 mi NE 5.8 mph - N/A   Overcast
9:36 PM 48.2 °F 46.4 °F 93% 29.75 in 10.0 mi ENE 4.6 mph - N/A   Light Drizzle
9:57 PM 48.2 °F 46.4 °F 93% 29.75 in 7.0 mi ENE 5.8 mph - N/A Rain Light Rain
10:16 PM 48.2 °F 46.4 °F 93% 29.75 in 7.0 mi ENE 6.9 mph - N/A   Drizzle
10:37 PM 48.2 °F 46.4 °F 93% 29.75 in 5.0 mi ENE 6.9 mph - N/A   Drizzle
10:56 PM 48.2 °F 46.4 °F 93% 29.74 in 7.0 mi ENE 6.9 mph - N/A Rain Rain
11:17 PM 48.2 °F 46.4 °F 93% 29.73 in 7.0 mi ENE 8.1 mph - N/A   Overcast
11:36 PM 48.2 °F 46.4 °F 93% 29.73 in 10.0 mi ENE 6.9 mph - N/A   Light Drizzle
11:56 PM 48.2 °F 46.4 °F 93% 29.73 in 10.0 mi East 9.2 mph 18.4 mph N/A   Overcast